Tracking 26198 objects as of 1-Oct-2022
HD Live streaming from Space Station
objects crossing your sky now

COSMOS 1741 DEB *

Track COSMOS 1741 DEB * now!
10-day predictions


NORAD ID: 19235
Int'l Code: 1986-030H
Perigee: 934.5 km
Apogee: 940.3 km
Inclination: 74.0 °
Period: 103.6 minutes
Semi major axis: 7308 km
RCS: 0.0103 m2 (small)
Launch date: April 17, 1986
Source: Commonwealth of Independent States (former USSR) (CIS)
Launch site: PLESETSK MISSILE AND SPACE COMPLEX (PKMTR)

Note: This is SATELLITE DEBRIS
aabbcc
Your satellite tracking list
Your tracking list is empty




NASA's NSSDC Master Catalog

Two Line Element Set (TLE):
1 19235U 70102G   22273.63456027  .00000295  00000-0  25994-3 0  9997
2 19235  74.0197 229.7954 0003950 157.2142  15.3702 13.89542158897915
Source of the keplerian elements: AFSPC